Satellite: AUBIESAT
Catalog number: 37854
Epoch time: 12354.89434691
Element set: 374
Inclination: 101.7068 deg
RA of node: 120.3317 deg
Eccentricity: 0.0241571
Arg of perigee: 179.8836 deg
Mean anomaly: 180.2462 deg
Mean motion: 14.82390359 rev/day
Decay rate: 1.0245e-04 rev/day^2
Epoch rev: 6188
Checksum: 311
Satellite: HRBE
Catalog number: 37855
Epoch time: 12355.33617142
Element set: 371
Inclination: 101.7068 deg
RA of node: 120.8530 deg
Eccentricity: 0.0242707
Arg of perigee: 178.8274 deg
Mean anomaly: 181.3546 deg
Mean motion: 14.82158486 rev/day
Decay rate: 9.638e-05 rev/day^2
Epoch rev: 6194
Checksum: 312
Satellite: RS-39
Catalog number: 38051
Epoch time: 12355.38581315
Element set: 0
Inclination: 051.6376 deg
RA of node: 350.2824 deg
Eccentricity: 0.0012706
Arg of perigee: 349.0404 deg
Mean anomaly: 155.8651 deg
Mean motion: 15.28058007 rev/day
Decay rate: 1.2067e-04 rev/day^2
Epoch rev: 5040
Checksum: 271
Satellite: E-STAR
Catalog number: 38079
Epoch time: 12355.13343394
Element set: 731
Inclination: 069.4810 deg
RA of node: 246.3447 deg
Eccentricity: 0.0679699
Arg of perigee: 010.4329 deg
Mean anomaly: 351.0006 deg
Mean motion: 14.30186190 rev/day
Decay rate: 6.2795e-04 rev/day^2
Epoch rev: 4401
Checksum: 301
Satellite: GOLIAT
Catalog number: 38085
Epoch time: 12355.13535008
Element set: 705
Inclination: 069.4862 deg
RA of node: 247.3787 deg
Eccentricity: 0.0686048
Arg of perigee: 011.0589 deg
Mean anomaly: 350.5256 deg
Mean motion: 14.28744208 rev/day
Decay rate: 6.3170e-04 rev/day^2
Epoch rev: 4398
Checksum: 320
Satellite: HORYU-2
Catalog number: 38340
Epoch time: 12354.89858278
Element set: 289
Inclination: 098.1957 deg
RA of node: 295.2780 deg
Eccentricity: 0.0013783
Arg of perigee: 100.6241 deg
Mean anomaly: 259.6549 deg
Mean motion: 14.70483757 rev/day
Decay rate: 1.538e-05 rev/day^2
Epoch rev: 3176
Checksum: 346
Satellite: RS-40
Catalog number: 38736
Epoch time: 12355.13001425
Element set: 138
Inclination: 082.4791 deg
RA of node: 266.7712 deg
Eccentricity: 0.0019420
Arg of perigee: 002.5230 deg
Mean anomaly: 357.5948 deg
Mean motion: 12.42648887 rev/day
Decay rate: 1.0e-07 rev/day^2
Epoch rev: 1800
Checksum: 277
Satellite: PROITERES
Catalog number: 38756
Epoch time: 12355.46022101
Element set: 337
Inclination: 098.2743 deg
RA of node: 063.0859 deg
Eccentricity: 0.0011966
Arg of perigee: 320.4999 deg
Mean anomaly: 039.5343 deg
Mean motion: 14.74016545 rev/day
Decay rate: 5.97e-06 rev/day^2
Epoch rev: 1506
Checksum: 303
Satellite: AENEAS
Catalog number: 38760
Epoch time: 12354.54971855
Element set: 0018
Inclination: 064.6747 deg
RA of node: 104.3800 deg
Eccentricity: 0.0216659
Arg of perigee: 262.6664 deg
Mean anomaly: 094.9825 deg
Mean motion: 14.79857661 rev/day
Decay rate: 4.392e-05 rev/day^2
Epoch rev: 00236
Checksum: 331
Satellite: CSSWE-D
Catalog number: 38761
Epoch time: 12354.55100875
Element set: 0018
Inclination: 064.6741 deg
RA of node: 104.3900 deg
Eccentricity: 0.0218383
Arg of perigee: 262.6531 deg
Mean anomaly: 094.9704 deg
Mean motion: 14.79693633 rev/day
Decay rate: 3.655e-05 rev/day^2
Epoch rev: 00238
Checksum: 300
Satellite: CXBN-E
Catalog number: 38762
Epoch time: 12354.54574126
Element set: 0017
Inclination: 064.6740 deg
RA of node: 104.3745 deg
Eccentricity: 0.0218013
Arg of perigee: 262.4335 deg
Mean anomaly: 095.1974 deg
Mean motion: 14.79821558 rev/day
Decay rate: 4.268e-05 rev/day^2
Epoch rev: 00245
Checksum: 299
Satellite: OBJECT F
Catalog number: 38763
Epoch time: 12354.48039500
Element set: 0018
Inclination: 064.6732 deg
RA of node: 104.5792 deg
Eccentricity: 0.0218697
Arg of perigee: 262.7028 deg
Mean anomaly: 094.9169 deg
Mean motion: 14.79719629 rev/day
Decay rate: 3.422e-05 rev/day^2
Epoch rev: 00238
Checksum: 321
Satellite: CINEMA-G
Catalog number: 38764
Epoch time: 12354.54639889
Element set: 0016
Inclination: 064.6729 deg
RA of node: 104.3603 deg
Eccentricity: 0.0218353
Arg of perigee: 262.7456 deg
Mean anomaly: 094.8781 deg
Mean motion: 14.79762851 rev/day
Decay rate: 3.590e-05 rev/day^2
Epoch rev: 00235
Checksum: 330
Satellite: CP5
Catalog number: 38765
Epoch time: 12354.40578137
Element set: 0017
Inclination: 064.6742 deg
RA of node: 104.7477 deg
Eccentricity: 0.0217486
Arg of perigee: 262.4776 deg
Mean anomaly: 095.1598 deg
Mean motion: 14.79907854 rev/day
Decay rate: 4.349e-05 rev/day^2
Epoch rev: 00233
Checksum: 340
Satellite: RAIKO
Catalog number: 38852
Epoch time: 12355.21985954
Element set: 82
Inclination: 051.6488 deg
RA of node: 275.8700 deg
Eccentricity: 0.0018038
Arg of perigee: 059.8039 deg
Mean anomaly: 300.4735 deg
Mean motion: 15.56785346 rev/day
Decay rate: 4.2887e-04 rev/day^2
Epoch rev: 1184
Checksum: 332
Satellite: FITSAT 1
Catalog number: 38853
Epoch time: 12355.19406699
Element set: 79
Inclination: 051.6507 deg
RA of node: 275.7018 deg
Eccentricity: 0.0015435
Arg of perigee: 075.7800 deg
Mean anomaly: 284.4885 deg
Mean motion: 15.57848980 rev/day
Decay rate: 5.1828e-04 rev/day^2
Epoch rev: 1189
Checksum: 347
Satellite: TechEdSat
Catalog number: 38854
Epoch time: 12355.20340013
Element set: 88
Inclination: 051.6464 deg
RA of node: 275.0140 deg
Eccentricity: 0.0015647
Arg of perigee: 081.6445 deg
Mean anomaly: 278.6316 deg
Mean motion: 15.60214634 rev/day
Decay rate: 7.4038e-04 rev/day^2
Epoch rev: 1190
Checksum: 274
Satellite: F 1
Catalog number: 38855
Epoch time: 12355.78658609
Element set: 92
Inclination: 051.6437 deg
RA of node: 272.1539 deg
Eccentricity: 0.0015825
Arg of perigee: 080.5116 deg
Mean anomaly: 279.8185 deg
Mean motion: 15.60022689 rev/day
Decay rate: 6.8938e-04 rev/day^2
Epoch rev: 1188
Checksum: 341
Satellite: WeWish
Catalog number: 38856
Epoch time: 12355.16716114
Element set: 105
Inclination: 051.6452 deg
RA of node: 274.0145 deg
Eccentricity: 0.0017616
Arg of perigee: 075.8657 deg
Mean anomaly: 284.4294 deg
Mean motion: 15.65036735 rev/day
Decay rate: 1.30784e-03 rev/day^2
Epoch rev: 1180
Checksum: 297
/EX